| time (UTC) | temp F | wind direction | speed knots | gust knots | rain 1hr in | rain 24hr in | rain mn in | humidity % | barometer mb |
| 20260903062634 | 82 | 46 | 0.9 | 1.7 | 0.00 | 0.00 | 0.00 | 52 | 1014.1 |
| 20260903062129 | 82 | 322 | 0.0 | 2.6 | 0.00 | 0.00 | 0.00 | 52 | 1014.2 |
| 20260903061624 | 82 | 6 | 1.7 | 1.7 | 0.00 | 0.00 | 0.00 | 51 | 1014.2 |
| 20260903061123 | 82 | 70 | 0.0 | 1.7 | 0.00 | 0.00 | 0.00 | 51 | 1014.2 |
| 20260903060618 | 82 | 355 | 0.0 | 1.7 | 0.00 | 0.00 | 0.00 | 51 | 1014.1 |
| 20260903060114 | 82 | 28 | 0.9 | 1.7 | 0.00 | 0.00 | 0.00 | 51 | 1014.1 |
| 20260903055611 | 82 | 333 | 0.0 | 1.7 | 0.00 | 0.00 | 0.00 | 51 | 1014.1 |
| 20260903055109 | 83 | 16 | 0.9 | 2.6 | 0.00 | 0.00 | 0.00 | 50 | 1014.3 |
| 20260903054604 | 83 | 321 | 0.9 | 1.7 | 0.00 | 0.00 | 0.00 | 50 | 1014.1 |
| 20260903054101 | 83 | 25 | 0.0 | 0.9 | 0.00 | 0.00 | 0.00 | 50 | 1014.3 |
| 20260903053556 | 83 | 8 | 0.9 | 1.7 | 0.00 | 0.00 | 0.00 | 50 | 1014.1 |
| 20260903053052 | 83 | 29 | 0.0 | 1.7 | 0.00 | 0.00 | 0.00 | 50 | 1014.2 |
| 20260903052548 | 83 | 64 | 1.7 | 1.7 | 0.00 | 0.00 | 0.00 | 49 | 1014.3 |
| 20260903052043 | 83 | 354 | 0.0 | 1.7 | 0.00 | 0.00 | 0.00 | 49 | 1014.1 |
| 20260903051542 | 83 | 11 | 0.9 | 1.7 | 0.00 | 0.00 | 0.00 | 49 | 1014.0 |
| 20260903051038 | 83 | 48 | 0.9 | 1.7 | 0.00 | 0.00 | 0.00 | 49 | 1014.2 |
| 20260903050537 | 83 | 343 | 0.0 | 1.7 | 0.00 | 0.00 | 0.00 | 49 | 1014.2 |
| 20260903050033 | 83 | 45 | 0.0 | 0.9 | 0.00 | 0.00 | 0.00 | 49 | 1014.2 |
| 20260903045532 | 83 | 44 | 0.0 | 0.9 | 0.00 | 0.00 | 0.00 | 49 | 1014.2 |
| 20260903045029 | 83 | 51 | 0.9 | 1.7 | 0.00 | 0.00 | 0.00 | 49 | 1014.0 |
| 20260903044525 | 84 | 36 | 0.0 | 1.7 | 0.00 | 0.00 | 0.00 | 48 | 1014.0 |
| 20260903044020 | 84 | 355 | 0.0 | 1.7 | 0.00 | 0.00 | 0.00 | 48 | 1014.2 |
| 20260903043516 | 84 | 339 | 0.0 | 0.9 | 0.00 | 0.00 | 0.00 | 48 | 1014.0 |
| 20260903043015 | 84 | 80 | 0.0 | 1.7 | 0.00 | 0.00 | 0.00 | 48 | 1014.0 |
| 20260903042510 | 85 | 7 | 0.0 | 1.7 | 0.00 | 0.00 | 0.00 | 47 | 1014.2 |
| 20260903042006 | 85 | 319 | 0.0 | 1.7 | 0.00 | 0.00 | 0.00 | 47 | 1013.9 |
| 20260903041502 | 85 | 22 | 0.0 | 0.9 | 0.00 | 0.00 | 0.00 | 47 | 1014.2 |
| 20260903040957 | 85 | 322 | 0.0 | 0.9 | 0.00 | 0.00 | 0.00 | 46 | 1014.3 |
| 20260903040456 | 85 | 84 | 0.0 | 1.7 | 0.00 | 0.00 | 0.00 | 46 | 1014.2 |
| 20260903035953 | 86 | 46 | 1.7 | 1.7 | 0.00 | 0.00 | 0.00 | 46 | 1014.1 |
| 20260903035448 | 86 | 44 | 1.7 | 1.7 | 0.00 | 0.00 | 0.00 | 46 | 1014.1 |
| 20260903034943 | 86 | 55 | 0.9 | 1.7 | 0.00 | 0.00 | 0.00 | 46 | 1014.2 |
| 20260903034438 | 86 | 32 | 0.0 | 0.9 | 0.00 | 0.00 | 0.00 | 46 | 1014.3 |
| 20260903033933 | 86 | 315 | 0.0 | 1.7 | 0.00 | 0.00 | 0.00 | 46 | 1013.9 |
| 20260903033428 | 86 | 333 | 0.0 | 0.9 | 0.00 | 0.00 | 0.00 | 46 | 1014.1 |
| 20260903032929 | 86 | 347 | 0.0 | 1.7 | 0.00 | 0.00 | 0.00 | 46 | 1013.9 |
| 20260903032424 | 87 | 75 | 0.0 | 1.7 | 0.00 | 0.00 | 0.00 | 46 | 1014.0 |
| 20260903031919 | 87 | 41 | 0.9 | 1.7 | 0.00 | 0.00 | 0.00 | 45 | 1014.1 |
| 20260903031419 | 87 | 67 | 0.0 | 1.7 | 0.00 | 0.00 | 0.00 | 45 | 1014.1 |
| 20260903030914 | 87 | 315 | 0.0 | 1.7 | 0.00 | 0.00 | 0.00 | 45 | 1014.1 |
| 20260903030410 | 87 | 55 | 0.0 | 1.7 | 0.00 | 0.00 | 0.00 | 45 | 1014.0 |
| 20260903025906 | 87 | 35 | 1.7 | 1.7 | 0.00 | 0.00 | 0.00 | 45 | 1013.9 |
| 20260903025401 | 87 | 333 | 0.9 | 1.7 | 0.00 | 0.00 | 0.00 | 45 | 1013.9 |
| 20260903024856 | 87 | 28 | 0.9 | 1.7 | 0.00 | 0.00 | 0.00 | 45 | 1014.0 |
| 20260903024356 | 87 | 67 | 0.9 | 1.7 | 0.00 | 0.00 | 0.00 | 45 | 1014.1 |
| 20260903023851 | 87 | 24 | 0.0 | 1.7 | 0.00 | 0.00 | 0.00 | 45 | 1013.7 |
| 20260903023347 | 87 | 60 | 0.9 | 1.7 | 0.00 | 0.00 | 0.00 | 44 | 1013.6 |
| 20260903022841 | 88 | 83 | 0.9 | 1.7 | 0.00 | 0.00 | 0.00 | 44 | 1013.7 |
| 20260903022341 | 88 | 74 | 1.7 | 1.7 | 0.00 | 0.00 | 0.00 | 44 | 1013.6 |
| 20260903021839 | 88 | 15 | 0.0 | 1.7 | 0.00 | 0.00 | 0.00 | 44 | 1013.8 |
| 20260903021336 | 88 | 38 | 0.9 | 1.7 | 0.00 | 0.00 | 0.00 | 43 | 1013.6 |
| 20260903020835 | 89 | 338 | 0.0 | 1.7 | 0.00 | 0.00 | 0.00 | 43 | 1013.4 |
| 20260903020330 | 89 | 311 | 0.0 | 1.7 | 0.00 | 0.00 | 0.00 | 43 | 1013.3 |
| 20260903015825 | 89 | 38 | 0.0 | 1.7 | 0.00 | 0.00 | 0.00 | 43 | 1013.3 |
| 20260903015321 | 89 | 25 | 0.0 | 1.7 | 0.00 | 0.00 | 0.00 | 42 | 1013.3 |
| 20260903014816 | 89 | 357 | 0.0 | 1.7 | 0.00 | 0.00 | 0.00 | 42 | 1013.3 |
| 20260903014316 | 90 | 6 | 0.0 | 1.7 | 0.00 | 0.00 | 0.00 | 42 | 1013.0 |
| 20260903013811 | 90 | 203 | 0.0 | 1.7 | 0.00 | 0.00 | 0.00 | 42 | 1013.3 |
| 20260903013310 | 90 | 50 | 0.0 | 1.7 | 0.00 | 0.00 | 0.00 | 41 | 1013.1 |
| 20260903012809 | 91 | 345 | 0.0 | 1.7 | 0.00 | 0.00 | 0.00 | 41 | 1013.2 |
| 20260903012306 | 91 | 315 | 0.0 | 1.7 | 0.00 | 0.00 | 0.00 | 40 | 1013.0 |
| 20260903011803 | 92 | 72 | 0.0 | 1.7 | 0.00 | 0.00 | 0.00 | 40 | 1012.9 |
| 20260903011302 | 92 | 345 | 0.0 | 1.7 | 0.00 | 0.00 | 0.00 | 40 | 1013.0 |
| 20260903010758 | 92 | 219 | 0.9 | 1.7 | 0.00 | 0.00 | 0.00 | 39 | 1012.9 |
| 20260903010254 | 92 | 344 | 0.9 | 1.7 | 0.00 | 0.00 | 0.00 | 39 | 1012.9 |
| 20260903005752 | 93 | 110 | 0.0 | 1.7 | 0.00 | 0.00 | 0.00 | 38 | 1012.8 |
| 20260903005247 | 93 | 336 | 1.7 | 1.7 | 0.00 | 0.00 | 0.00 | 38 | 1012.8 |
| 20260903004742 | 94 | 320 | 0.0 | 1.7 | 0.00 | 0.00 | 0.00 | 37 | 1013.0 |
| 20260903004238 | 94 | 57 | 1.7 | 3.5 | 0.00 | 0.00 | 0.00 | 36 | 1012.9 |
| 20260903003733 | 95 | 9 | 1.7 | 3.5 | 0.00 | 0.00 | 0.00 | 36 | 1012.8 |
| 20260903003228 | 95 | 96 | 1.7 | 2.6 | 0.00 | 0.00 | 0.00 | 35 | 1012.9 |
| 20260903002723 | 96 | 79 | 2.6 | 2.6 | 0.00 | 0.00 | 0.00 | 34 | 1013.0 |
| 20260903002217 | 97 | 62 | 0.9 | 4.3 | 0.00 | 0.00 | 0.00 | 33 | 1013.0 |
| 20260903001713 | 97 | 26 | 2.6 | 2.6 | 0.00 | 0.00 | 0.00 | 33 | 1013.1 |
| 20260903001212 | 97 | 61 | 0.9 | 1.7 | 0.00 | 0.00 | 0.00 | 33 | 1013.1 |
| 20260903000708 | 98 | 38 | 1.7 | 2.6 | 0.00 | 0.00 | 0.00 | 33 | 1012.6 |
| 20260903000207 | 99 | 53 | 0.9 | 2.6 | 0.00 | 0.00 | 0.00 | 31 | 1012.9 |
| 20260902235706 | 100 | 13 | 1.7 | 2.6 | 0.00 | 0.00 | 0.00 | 31 | 1013.0 |
| 20260902235201 | 100 | 121 | 1.7 | 1.7 | 0.00 | 0.00 | 0.00 | 30 | 1012.8 |
| 20260902234701 | 101 | 356 | 0.0 | 2.6 | 0.00 | 0.00 | 0.00 | 29 | 1012.9 |
| 20260902234159 | 101 | 0 | 1.7 | 1.7 | 0.00 | 0.00 | 0.00 | 29 | 1012.9 |
| 20260902233654 | 102 | 345 | 1.7 | 3.5 | 0.00 | 0.00 | 0.00 | 29 | 1013.0 |
| 20260902233154 | 101 | 318 | 0.0 | 2.6 | 0.00 | 0.00 | 0.00 | 28 | 1013.0 |
| 20260902232653 | 102 | 4 | 0.0 | 2.6 | 0.00 | 0.00 | 0.00 | 28 | 1013.1 |
| 20260902232153 | 102 | 230 | 1.7 | 2.6 | 0.00 | 0.00 | 0.00 | 27 | 1013.0 |
| 20260902231647 | 102 | 19 | 0.9 | 3.5 | 0.00 | 0.00 | 0.00 | 27 | 1013.2 |
| 20260902231142 | 102 | 256 | 0.9 | 5.2 | 0.00 | 0.00 | 0.00 | 27 | 1013.0 |
| 20260902230637 | 103 | 128 | 2.6 | 4.3 | 0.00 | 0.00 | 0.00 | 26 | 1013.0 |
| 20260902230136 | 103 | 40 | 0.9 | 3.5 | 0.00 | 0.00 | 0.00 | 27 | 1013.0 |
| 20260902225631 | 103 | 297 | 2.6 | 8.7 | 0.00 | 0.00 | 0.00 | 26 | 1013.0 |
| 20260902225130 | 104 | 165 | 3.5 | 4.3 | 0.00 | 0.00 | 0.00 | 26 | 1012.8 |
| 20260902224629 | 103 | 26 | 0.9 | 4.3 | 0.00 | 0.00 | 0.00 | 26 | 1012.9 |
| 20260902224125 | 104 | 108 | 0.0 | 3.5 | 0.00 | 0.00 | 0.00 | 26 | 1012.9 |
| 20260902223621 | 103 | 316 | 1.7 | 5.2 | 0.00 | 0.00 | 0.00 | 26 | 1012.9 |
| 20260902223120 | 104 | 280 | 3.5 | 6.1 | 0.00 | 0.00 | 0.00 | 26 | 1012.9 |
| 20260902222619 | 103 | 54 | 1.7 | 2.6 | 0.00 | 0.00 | 0.00 | 26 | 1013.1 |
| 20260902222119 | 103 | 94 | 1.7 | 5.2 | 0.00 | 0.00 | 0.00 | 27 | 1013.3 |
| 20260902221613 | 103 | 73 | 1.7 | 4.3 | 0.00 | 0.00 | 0.00 | 26 | 1013.2 |
| 20260902221108 | 104 | 35 | 2.6 | 4.3 | 0.00 | 0.00 | 0.00 | 26 | 1013.2 |
| 20260902220604 | 104 | 37 | 1.7 | 4.3 | 0.00 | 0.00 | 0.00 | 26 | 1013.2 |
| 20260902220058 | 103 | 216 | 0.0 | 5.2 | 0.00 | 0.00 | 0.00 | 27 | 1013.2 |
| 20260902215554 | 104 | 91 | 1.7 | 5.2 | 0.00 | 0.00 | 0.00 | 26 | 1013.3 |
| 20260902215050 | 104 | 344 | 1.7 | 5.2 | 0.00 | 0.00 | 0.00 | 27 | 1013.5 |
| 20260902214549 | 105 | 193 | 4.3 | 5.2 | 0.00 | 0.00 | 0.00 | 26 | 1013.5 |
| 20260902214049 | 105 | 358 | 1.7 | 2.6 | 0.00 | 0.00 | 0.00 | 26 | 1013.5 |
| 20260902213544 | 105 | 49 | 3.5 | 4.3 | 0.00 | 0.00 | 0.00 | 26 | 1013.7 |
| 20260902213044 | 105 | 200 | 1.7 | 3.5 | 0.00 | 0.00 | 0.00 | 26 | 1013.5 |
| 20260902212539 | 105 | 195 | 1.7 | 2.6 | 0.00 | 0.00 | 0.00 | 26 | 1013.6 |
| 20260902212035 | 104 | 112 | 1.7 | 5.2 | 0.00 | 0.00 | 0.00 | 27 | 1013.6 |
| 20260902211532 | 105 | 220 | 2.6 | 4.3 | 0.00 | 0.00 | 0.00 | 26 | 1013.7 |
| 20260902211026 | 104 | 347 | 1.7 | 2.6 | 0.00 | 0.00 | 0.00 | 27 | 1013.8 |
| 20260902210526 | 105 | 295 | 1.7 | 2.6 | 0.00 | 0.00 | 0.00 | 27 | 1013.9 |
| 20260902210026 | 105 | 63 | 5.2 | 5.2 | 0.00 | 0.00 | 0.00 | 26 | 1013.9 |
| 20260902205520 | 104 | 308 | 0.9 | 3.5 | 0.00 | 0.00 | 0.00 | 27 | 1014.1 |
| 20260902205016 | 103 | 180 | 3.5 | 5.2 | 0.00 | 0.00 | 0.00 | 27 | 1014.1 |
| 20260902204515 | 104 | 250 | 1.7 | 5.2 | 0.00 | 0.00 | 0.00 | 27 | 1014.2 |
| 20260902204010 | 104 | 331 | 1.7 | 6.1 | 0.00 | 0.00 | 0.00 | 28 | 1014.2 |
| 20260902203506 | 104 | 79 | 1.7 | 5.2 | 0.00 | 0.00 | 0.00 | 27 | 1014.3 |
| 20260902203004 | 103 | 49 | 0.0 | 4.3 | 0.00 | 0.00 | 0.00 | 29 | 1014.2 |
| 20260902202501 | 102 | 84 | 0.0 | 3.5 | 0.00 | 0.00 | 0.00 | 29 | 1014.6 |
| 20260902201957 | 103 | 54 | 0.9 | 6.1 | 0.00 | 0.00 | 0.00 | 28 | 1014.5 |
| 20260902201457 | 103 | 125 | 1.7 | 6.1 | 0.00 | 0.00 | 0.00 | 29 | 1014.5 |
| 20260902200952 | 103 | 176 | 0.9 | 4.3 | 0.00 | 0.00 | 0.00 | 29 | 1014.7 |
| 20260902200447 | 103 | 262 | 0.9 | 3.5 | 0.00 | 0.00 | 0.00 | 29 | 1014.6 |
| 20260902195943 | 102 | 2 | 1.7 | 7.8 | 0.00 | 0.00 | 0.00 | 30 | 1014.5 |
| 20260902195438 | 102 | 163 | 1.7 | 3.5 | 0.00 | 0.00 | 0.00 | 29 | 1014.8 |
| 20260902194937 | 103 | 186 | 2.6 | 6.1 | 0.00 | 0.00 | 0.00 | 28 | 1014.7 |
| 20260902194437 | 102 | 308 | 0.9 | 2.6 | 0.00 | 0.00 | 0.00 | 29 | 1014.8 |
| 20260902193932 | 100 | 280 | 2.6 | 3.5 | 0.00 | 0.00 | 0.00 | 31 | 1014.8 |
| 20260902193428 | 102 | 220 | 5.2 | 5.2 | 0.00 | 0.00 | 0.00 | 29 | 1015.0 |
| 20260902192927 | 102 | 249 | 7.8 | 7.8 | 0.00 | 0.00 | 0.00 | 29 | 1015.2 |
| 20260902192426 | 102 | 86 | 0.0 | 4.3 | 0.00 | 0.00 | 0.00 | 29 | 1015.2 |
| 20260902191924 | 102 | 250 | 2.6 | 7.0 | 0.00 | 0.00 | 0.00 | 29 | 1015.3 |
| 20260902191420 | 102 | 240 | 8.7 | 10.4 | 0.00 | 0.00 | 0.00 | 29 | 1015.2 |
| 20260902190915 | 101 | 105 | 1.7 | 9.6 | 0.00 | 0.00 | 0.00 | 29 | 1015.3 |
| 20260902190411 | 102 | 317 | 1.7 | 6.1 | 0.00 | 0.00 | 0.00 | 29 | 1015.3 |
| 20260902185906 | 101 | 167 | 0.9 | 8.7 | 0.00 | 0.00 | 0.00 | 30 | 1015.4 |
| 20260902185402 | 101 | 237 | 3.5 | 7.8 | 0.00 | 0.00 | 0.00 | 30 | 1015.4 |
| 20260902184857 | 102 | 224 | 4.3 | 11.3 | 0.00 | 0.00 | 0.00 | 29 | 1015.5 |
| 20260902184352 | 102 | 332 | 0.9 | 3.5 | 0.00 | 0.00 | 0.00 | 30 | 1015.8 |
| 20260902183848 | 101 | 225 | 1.7 | 11.3 | 0.00 | 0.00 | 0.00 | 31 | 1015.8 |
| 20260902183344 | 101 | 198 | 3.5 | 7.0 | 0.00 | 0.00 | 0.00 | 30 | 1016.0 |
| 20260902182840 | 100 | 249 | 2.6 | 5.2 | 0.00 | 0.00 | 0.00 | 32 | 1015.8 |
| 20260902182336 | 100 | 151 | 1.7 | 7.0 | 0.00 | 0.00 | 0.00 | 32 | 1016.3 |
| 20260902181833 | 101 | 223 | 4.3 | 7.0 | 0.00 | 0.00 | 0.00 | 32 | 1016.1 |
| 20260902181328 | 100 | 248 | 7.0 | 7.8 | 0.00 | 0.00 | 0.00 | 33 | 1016.1 |
| 20260902180827 | 99 | 241 | 2.6 | 8.7 | 0.00 | 0.00 | 0.00 | 33 | 1016.2 |
| 20260902180323 | 100 | 253 | 1.7 | 6.1 | 0.00 | 0.00 | 0.00 | 32 | 1016.2 |
| 20260902175818 | 99 | 300 | 3.5 | 7.8 | 0.00 | 0.00 | 0.00 | 34 | 1016.1 |
| 20260902175313 | 100 | 226 | 1.7 | 10.4 | 0.00 | 0.00 | 0.00 | 33 | 1016.2 |
| 20260902174809 | 99 | 248 | 0.9 | 6.1 | 0.00 | 0.00 | 0.00 | 34 | 1016.5 |
| 20260902174306 | 98 | 223 | 1.7 | 9.6 | 0.00 | 0.00 | 0.00 | 34 | 1016.4 |
| 20260902173801 | 98 | 184 | 2.6 | 8.7 | 0.00 | 0.00 | 0.00 | 36 | 1016.6 |
| 20260902173301 | 98 | 213 | 5.2 | 7.0 | 0.00 | 0.00 | 0.00 | 35 | 1016.3 |
| 20260902172755 | 98 | 231 | 3.5 | 6.1 | 0.00 | 0.00 | 0.00 | 35 | 1016.7 |
| 20260902172255 | 98 | 232 | 4.3 | 8.7 | 0.00 | 0.00 | 0.00 | 35 | 1016.8 |
| 20260902171750 | 99 | 232 | 6.1 | 8.7 | 0.00 | 0.00 | 0.00 | 35 | 1016.7 |
| 20260902171245 | 98 | 162 | 2.6 | 5.2 | 0.00 | 0.00 | 0.00 | 36 | 1016.8 |
| 20260902170742 | 98 | 246 | 3.5 | 7.0 | 0.00 | 0.00 | 0.00 | 35 | 1017.0 |
| 20260902170237 | 97 | 211 | 2.6 | 7.0 | 0.00 | 0.00 | 0.00 | 37 | 1017.0 |
| 20260902165732 | 97 | 180 | 2.6 | 4.3 | 0.00 | 0.00 | 0.00 | 37 | 1017.1 |
| 20260902165231 | 97 | 226 | 1.7 | 7.8 | 0.00 | 0.00 | 0.00 | 38 | 1016.7 |
| 20260902164727 | 97 | 232 | 1.7 | 6.1 | 0.00 | 0.00 | 0.00 | 38 | 1017.2 |
| 20260902164227 | 96 | 221 | 4.3 | 6.1 | 0.00 | 0.00 | 0.00 | 38 | 1017.3 |
| 20260902163722 | 95 | 80 | 0.9 | 8.7 | 0.00 | 0.00 | 0.00 | 39 | 1017.3 |
| 20260902163221 | 95 | 213 | 5.2 | 8.7 | 0.00 | 0.00 | 0.00 | 39 | 1017.4 |
| 20260902162720 | 95 | 180 | 1.7 | 10.4 | 0.00 | 0.00 | 0.00 | 39 | 1017.4 |
| 20260902162215 | 94 | 256 | 1.7 | 8.7 | 0.00 | 0.00 | 0.00 | 41 | 1017.4 |
| 20260902161709 | 94 | 220 | 2.6 | 6.1 | 0.00 | 0.00 | 0.00 | 41 | 1017.5 |
| 20260902161205 | 94 | 213 | 6.1 | 12.2 | 0.00 | 0.00 | 0.00 | 41 | 1017.6 |
| 20260902160702 | 94 | 226 | 1.7 | 5.2 | 0.00 | 0.00 | 0.00 | 41 | 1017.5 |
| 20260902160156 | 93 | 267 | 1.7 | 7.8 | 0.00 | 0.00 | 0.00 | 42 | 1017.7 |
| 20260902155654 | 93 | 240 | 2.6 | 8.7 | 0.00 | 0.00 | 0.00 | 42 | 1017.5 |
| 20260902155153 | 92 | 146 | 1.7 | 5.2 | 0.00 | 0.00 | 0.00 | 43 | 1017.7 |
| 20260902154649 | 93 | 192 | 2.6 | 7.8 | 0.00 | 0.00 | 0.00 | 43 | 1017.4 |
| 20260902154148 | 92 | 162 | 2.6 | 8.7 | 0.00 | 0.00 | 0.00 | 43 | 1017.6 |
| 20260902153648 | 92 | 232 | 7.8 | 8.7 | 0.00 | 0.00 | 0.00 | 43 | 1017.6 |
| 20260902153143 | 91 | 201 | 5.2 | 7.0 | 0.00 | 0.00 | 0.00 | 44 | 1017.5 |
| 20260902152640 | 91 | 165 | 4.3 | 12.2 | 0.00 | 0.00 | 0.00 | 45 | 1017.6 |
| 20260902152135 | 91 | 242 | 0.0 | 4.3 | 0.00 | 0.00 | 0.00 | 45 | 1017.6 |
| 20260902151631 | 90 | 251 | 2.6 | 4.3 | 0.00 | 0.00 | 0.00 | 46 | 1017.5 |
| 20260902151131 | 89 | 184 | 6.1 | 7.0 | 0.00 | 0.00 | 0.00 | 46 | 1017.6 |
| 20260902150626 | 89 | 191 | 1.7 | 6.1 | 0.00 | 0.00 | 0.00 | 47 | 1017.5 |
| 20260902150122 | 89 | 233 | 1.7 | 7.0 | 0.00 | 0.00 | 0.00 | 47 | 1017.6 |
| 20260902145621 | 88 | 294 | 0.9 | 7.0 | 0.00 | 0.00 | 0.00 | 47 | 1017.6 |
| 20260902145121 | 88 | 175 | 2.6 | 5.2 | 0.00 | 0.00 | 0.00 | 48 | 1017.5 |
| 20260902144618 | 87 | 206 | 0.0 | 5.2 | 0.00 | 0.00 | 0.00 | 49 | 1017.5 |
| 20260902144118 | 87 | 224 | 2.6 | 5.2 | 0.00 | 0.00 | 0.00 | 49 | 1017.7 |
| 20260902143613 | 86 | 71 | 0.9 | 6.1 | 0.00 | 0.00 | 0.00 | 51 | 1017.6 |
| 20260902143108 | 85 | 229 | 1.7 | 7.8 | 0.00 | 0.00 | 0.00 | 51 | 1017.7 |
| 20260902142605 | 84 | 198 | 0.0 | 5.2 | 0.00 | 0.00 | 0.00 | 53 | 1017.8 |
| 20260902142059 | 83 | 216 | 1.7 | 3.5 | 0.00 | 0.00 | 0.00 | 54 | 1017.8 |
| 20260902141559 | 83 | 293 | 0.0 | 5.2 | 0.00 | 0.00 | 0.00 | 55 | 1017.6 |
| 20260902141055 | 83 | 268 | 1.7 | 3.5 | 0.00 | 0.00 | 0.00 | 55 | 1017.6 |
| 20260902140549 | 82 | 230 | 1.7 | 2.6 | 0.00 | 0.00 | 0.00 | 56 | 1017.6 |
| 20260902140045 | 82 | 183 | 1.7 | 6.1 | 0.00 | 0.00 | 0.00 | 56 | 1017.7 |
| 20260902135544 | 82 | 242 | 0.9 | 2.6 | 0.00 | 0.00 | 0.00 | 57 | 1017.7 |
| 20260902135044 | 81 | 224 | 0.9 | 5.2 | 0.00 | 0.00 | 0.00 | 57 | 1017.5 |
| 20260902134541 | 81 | 124 | 1.7 | 3.5 | 0.00 | 0.00 | 0.00 | 58 | 1017.7 |
| 20260902134040 | 80 | 209 | 3.5 | 5.2 | 0.00 | 0.00 | 0.00 | 58 | 1017.4 |
| 20260902133535 | 80 | 260 | 0.0 | 4.3 | 0.00 | 0.00 | 0.00 | 59 | 1017.4 |
| 20260902133035 | 79 | 209 | 1.7 | 3.5 | 0.00 | 0.00 | 0.00 | 60 | 1017.5 |
| 20260902132531 | 79 | 218 | 2.6 | 5.2 | 0.00 | 0.00 | 0.00 | 60 | 1017.4 |
| 20260902132026 | 78 | 299 | 0.0 | 2.6 | 0.00 | 0.00 | 0.00 | 61 | 1017.5 |
| 20260902131522 | 78 | 285 | 1.7 | 3.5 | 0.00 | 0.00 | 0.00 | 62 | 1017.5 |
| 20260902131022 | 77 | 247 | 0.9 | 3.5 | 0.00 | 0.00 | 0.00 | 62 | 1017.6 |
| 20260902130518 | 77 | 283 | 0.0 | 3.5 | 0.00 | 0.00 | 0.00 | 63 | 1017.2 |
| 20260902130013 | 76 | 189 | 2.6 | 2.6 | 0.00 | 0.00 | 0.00 | 63 | 1017.5 |
| 20260902125509 | 76 | 255 | 0.9 | 3.5 | 0.00 | 0.00 | 0.00 | 64 | 1017.3 |
| 20260902125004 | 75 | 241 | 1.7 | 3.5 | 0.00 | 0.00 | 0.00 | 65 | 1017.4 |
| 20260902124501 | 75 | 314 | 0.0 | 2.6 | 0.00 | 0.00 | 0.00 | 65 | 1017.3 |
| 20260902123955 | 75 | 264 | 0.0 | 1.7 | 0.00 | 0.00 | 0.00 | 65 | 1017.3 |
| 20260902123452 | 75 | 221 | 1.7 | 3.5 | 0.00 | 0.00 | 0.00 | 65 | 1017.4 |
| 20260902122950 | 75 | 199 | 2.6 | 4.3 | 0.00 | 0.00 | 0.00 | 65 | 1017.1 |
| 20260902122446 | 75 | 209 | 1.7 | 3.5 | 0.00 | 0.00 | 0.00 | 65 | 1017.1 |
| 20260902121941 | 74 | 229 | 0.0 | 1.7 | 0.00 | 0.00 | 0.00 | 65 | 1017.1 |
| 20260902121441 | 74 | 202 | 0.9 | 2.6 | 0.00 | 0.00 | 0.00 | 65 | 1017.3 |
| 20260902120936 | 75 | 233 | 0.0 | 1.7 | 0.00 | 0.00 | 0.00 | 64 | 1017.1 |
| 20260902120433 | 75 | 293 | 0.0 | 1.7 | 0.00 | 0.00 | 0.00 | 64 | 1017.0 |
| 20260902115932 | 75 | 282 | 0.0 | 3.5 | 0.00 | 0.00 | 0.00 | 63 | 1017.2 |
| 20260902115428 | 75 | 225 | 1.7 | 2.6 | 0.00 | 0.00 | 0.00 | 63 | 1017.1 |
| 20260902114925 | 76 | 264 | 0.9 | 2.6 | 0.00 | 0.00 | 0.00 | 62 | 1017.1 |
| 20260902114421 | 75 | 230 | 1.7 | 3.5 | 0.00 | 0.00 | 0.00 | 63 | 1017.1 |
| 20260902113921 | 75 | 191 | 0.0 | 1.7 | 0.00 | 0.00 | 0.00 | 63 | 1017.1 |
| 20260902113417 | 75 | 182 | 0.0 | 2.6 | 0.00 | 0.00 | 0.00 | 63 | 1016.8 |
| 20260902112916 | 75 | 304 | 0.0 | 1.7 | 0.00 | 0.00 | 0.00 | 63 | 1017.0 |
| 20260902112412 | 75 | 279 | 0.0 | 1.7 | 0.00 | 0.00 | 0.00 | 64 | 1017.1 |
| 20260902111908 | 75 | 224 | 0.0 | 1.7 | 0.00 | 0.00 | 0.00 | 63 | 1016.6 |
| 20260902111404 | 75 | 249 | 0.9 | 2.6 | 0.00 | 0.00 | 0.00 | 63 | 1016.6 |
| 20260902110900 | 75 | 230 | 1.7 | 1.7 | 0.00 | 0.00 | 0.00 | 63 | 1016.8 |
| 20260902110355 | 75 | 335 | 0.9 | 0.9 | 0.00 | 0.00 | 0.00 | 62 | 1016.6 |
| 20260902105855 | 75 | 10 | 0.0 | 1.7 | 0.00 | 0.00 | 0.00 | 62 | 1017.0 |
| 20260902105350 | 76 | 232 | 0.0 | 2.6 | 0.00 | 0.00 | 0.00 | 61 | 1016.5 |
| 20260902104845 | 76 | 315 | 0.9 | 2.6 | 0.00 | 0.00 | 0.00 | 61 | 1016.8 |
| 20260902104342 | 76 | 185 | 0.9 | 2.6 | 0.00 | 0.00 | 0.00 | 61 | 1016.6 |
| 20260902103841 | 76 | 196 | 0.9 | 2.6 | 0.00 | 0.00 | 0.00 | 60 | 1016.6 |
| 20260902103336 | 76 | 225 | 1.7 | 2.6 | 0.00 | 0.00 | 0.00 | 60 | 1016.6 |
| 20260902102831 | 76 | 224 | 0.0 | 1.7 | 0.00 | 0.00 | 0.00 | 60 | 1016.6 |
| 20260902102329 | 76 | 244 | 1.7 | 4.3 | 0.00 | 0.00 | 0.00 | 60 | 1016.7 |
| 20260902101824 | 76 | 285 | 0.9 | 1.7 | 0.00 | 0.00 | 0.00 | 60 | 1016.5 |
| 20260902101319 | 76 | 286 | 0.9 | 1.7 | 0.00 | 0.00 | 0.00 | 60 | 1016.6 |
| 20260902100819 | 76 | 230 | 1.7 | 2.6 | 0.00 | 0.00 | 0.00 | 60 | 1016.6 |
| 20260902100318 | 76 | 259 | 2.6 | 2.6 | 0.00 | 0.00 | 0.00 | 59 | 1016.3 |
| 20260902095814 | 76 | 262 | 0.9 | 3.5 | 0.00 | 0.00 | 0.00 | 59 | 1016.5 |
| 20260902095314 | 76 | 272 | 2.6 | 2.6 | 0.00 | 0.00 | 0.00 | 59 | 1016.3 |
| 20260902094808 | 76 | 260 | 1.7 | 2.6 | 0.00 | 0.00 | 0.00 | 59 | 1016.6 |
| 20260902094304 | 76 | 0 | 0.0 | 2.6 | 0.00 | 0.00 | 0.00 | 59 | 1016.5 |
| 20260902093804 | 76 | 193 | 1.7 | 2.6 | 0.00 | 0.00 | 0.00 | 59 | 1016.3 |
| 20260902093259 | 76 | 259 | 1.7 | 1.7 | 0.00 | 0.00 | 0.00 | 58 | 1016.5 |
| 20260902092758 | 77 | 242 | 0.9 | 1.7 | 0.00 | 0.00 | 0.00 | 58 | 1016.3 |
| 20260902092254 | 76 | 274 | 0.9 | 2.6 | 0.00 | 0.00 | 0.00 | 58 | 1016.3 |
| 20260902091753 | 76 | 242 | 2.6 | 3.5 | 0.00 | 0.00 | 0.00 | 58 | 1016.4 |
| 20260902091249 | 76 | 297 | 0.0 | 1.7 | 0.00 | 0.00 | 0.00 | 58 | 1016.4 |
| 20260902090746 | 77 | 253 | 0.0 | 1.7 | 0.00 | 0.00 | 0.00 | 58 | 1016.4 |
| 20260902090245 | 77 | 269 | 0.0 | 2.6 | 0.00 | 0.00 | 0.00 | 58 | 1016.4 |
| 20260902085744 | 77 | 218 | 0.0 | 2.6 | 0.00 | 0.00 | 0.00 | 57 | 1016.4 |
| 20260902085240 | 77 | 236 | 2.6 | 2.6 | 0.00 | 0.00 | 0.00 | 57 | 1016.3 |
| 20260902084735 | 77 | 267 | 0.0 | 1.7 | 0.00 | 0.00 | 0.00 | 57 | 1016.2 |
| 20260902084232 | 77 | 229 | 0.0 | 2.6 | 0.00 | 0.00 | 0.00 | 56 | 1016.2 |
| 20260902083731 | 77 | 260 | 0.9 | 1.7 | 0.00 | 0.00 | 0.00 | 56 | 1016.4 |
| 20260902083226 | 78 | 242 | 0.9 | 2.6 | 0.00 | 0.00 | 0.00 | 56 | 1016.1 |
| 20260902082721 | 78 | 242 | 0.9 | 1.7 | 0.00 | 0.00 | 0.00 | 56 | 1016.1 |
| 20260902082218 | 78 | 278 | 0.9 | 3.5 | 0.00 | 0.00 | 0.00 | 55 | 1016.1 |
| 20260902081714 | 78 | 218 | 0.0 | 1.7 | 0.00 | 0.00 | 0.00 | 55 | 1016.2 |
| 20260902081209 | 78 | 267 | 0.9 | 1.7 | 0.00 | 0.00 | 0.00 | 55 | 1016.0 |
| 20260902080704 | 78 | 275 | 0.0 | 1.7 | 0.00 | 0.00 | 0.00 | 55 | 1015.9 |
| 20260902080200 | 78 | 246 | 0.0 | 0.9 | 0.00 | 0.00 | 0.00 | 54 | 1016.2 |
| 20260902075700 | 78 | 209 | 0.0 | 3.5 | 0.00 | 0.00 | 0.00 | 54 | 1016.3 |
| 20260902075156 | 79 | 312 | 0.0 | 2.6 | 0.00 | 0.00 | 0.00 | 54 | 1016.4 |
| 20260902074656 | 79 | 269 | 0.0 | 1.7 | 0.00 | 0.00 | 0.00 | 54 | 1016.3 |
| 20260902074151 | 79 | 319 | 0.0 | 1.7 | 0.00 | 0.00 | 0.00 | 53 | 1016.2 |
| 20260902073647 | 79 | 333 | 0.0 | 1.7 | 0.00 | 0.00 | 0.00 | 53 | 1016.3 |
| 20260902073143 | 79 | 254 | 1.7 | 1.7 | 0.00 | 0.00 | 0.00 | 53 | 1016.4 |
| 20260902072639 | 79 | 343 | 0.0 | 1.7 | 0.00 | 0.00 | 0.00 | 53 | 1016.3 |
| 20260902072135 | 79 | 283 | 1.7 | 1.7 | 0.00 | 0.00 | 0.00 | 52 | 1016.0 |
| 20260902071631 | 80 | 347 | 0.0 | 1.7 | 0.00 | 0.00 | 0.00 | 52 | 1016.0 |
| 20260902071126 | 80 | 135 | 2.6 | 2.6 | 0.00 | 0.00 | 0.00 | 51 | 1016.1 |
| 20260902070622 | 80 | 12 | 0.9 | 1.7 | 0.00 | 0.00 | 0.00 | 51 | 1016.0 |
| 20260902070116 | 80 | 305 | 0.9 | 1.7 | 0.00 | 0.00 | 0.00 | 51 | 1016.2 |
| 20260902065615 | 80 | 297 | 0.0 | 0.9 | 0.00 | 0.00 | 0.00 | 51 | 1016.2 |
| 20260902065111 | 80 | 342 | 0.9 | 2.6 | 0.00 | 0.00 | 0.00 | 51 | 1016.2 |
| 20260902064606 | 80 | 333 | 0.9 | 1.7 | 0.00 | 0.00 | 0.00 | 51 | 1016.1 |
| 20260902064101 | 80 | 232 | 0.0 | 1.7 | 0.00 | 0.00 | 0.00 | 50 | 1016.1 |
| 20260902063556 | 80 | 15 | 0.0 | 1.7 | 0.00 | 0.00 | 0.00 | 50 | 1015.9 |
| 20260902063051 | 80 | 269 | 0.0 | 1.7 | 0.00 | 0.00 | 0.00 | 50 | 1016.2 |